SCP
1 1 1 0 0 0 0 0 0 0 0 0 0 0 0 0 0 0 0 0 0 0 0 0 0 0 0 0 0 0 0 0 0 -0 -0 -0 -0 -0 -0 -0 0 0 0 0 0 0 0 0 0
1 1 0 0 0 0 0 0 -0 -0 0 0 0 0 0 0 0 0 0 0 0 0 0 0 0 0 0 0 0 0 0 0 0 -0 -0 -0 -0 -0 -0 -0 -0 0 0 0 0 0 0 0 0
0 0 0 0 0 0 0 0 -0 0 0 -0 0 0 0 0 0 0 0 0 0 0 0 0 0 0 0 0 0 0 0 0 0 0 -0 -0 -0 -0 -0 -0 0 0 0 0 0 0 0 0 0
0 0 0 0 0 0 0 -0 0 0 -0 -0 -0 -0 0 0 0 0 0 0 0 0 0 0 0 0 0 0 0 0 0 0 0 0 0 -0 -0 -0 -0 -0 0 0 0 0 0 0 0 0 0
0 0 0 0 0 0 0 0 0 0 0 -0 -0 -0 0 0 0 0 0 0 0 0 0 0 0 0 0 0 0 0 0 0 0 0 0 0 -0 -0 -0 -0 0 0 0 0 0 0 0 0 0
0 0 0 0 0 0 0 0 0 0 0 0 0 -0 0 0 0 0 0 0 0 0 0 0 0 0 0 0 0 0 0 0 0 0 0 0 0 0 0 0 0 0 0 0 0 0 0 0 0
0 0 0 0 0 0 0 0 0 0 0 0 0 0 0 0 0 0 0 0 0 0 0 0 0 0 0 0 0 0 0 0 0 0 0 0 0 0 0 0 0 0 0 0 0 0 0 0 0
0 0 0 0 0 0 0 0 0 0 0 0 0 0 0 0 0 0 0 0 0 0 0 0 0 0 0 0 0 0 0 0 0 0 0 0 0 0 0 0 0 0 0 0 0 0 0 0 0
0 0 0 0 0 0 0 0 0 0 0 0 0 0 0 0 0 0 0 0 0 0 0 0 0 0 0 0 0 0 0 0 0 0 0 0 0 0 0 0 0 0 0 0 0 0 0 0 0
0 0 0 0 0 0 0 0 0 0 0 0 0 0 0 0 0 0 0 0 0 0 0 0 0 0 0 0 0 0 0 0 0 0 0 0 0 0 0 0 0 0 0 0 0 0 0 0 0
0 0 0 0 0 0 0 0 0 0 0 0 0 0 0 0 0 0 0 0 0 0 0 0 0 0 0 0 0 0 0 0 0 0 0 0 0 0 0 0 0 0 0 0 0 0 0 0 0
0 0 0 0 0 0 0 0 0 0 0 0 0 0 0 0 0 0 0 0 0 0 0 0 0 0 0 0 0 0 0 0 0 0 0 0 0 0 0 0 0 0 0 0 0 0 0 0 0
0 0 0 0 0 0 0 0 0 0 0 0 0 0 0 0 0 0 0 0 0 0 0 0 0 0 0 0 0 0 0 0 0 0 0 0 0 0 0 0 0 0 0 0 0 0 0 0 0
0 0 0 0 0 0 0 0 0 0 0 0 0 0 0 0 0 0 0 0 0 0 0 0 0 0 0 0 0 0 0 0 0 0 0 0 0 0 0 0 0 0 0 0 0 0 0 0 0
0 0 0 0 0 0 0 0 0 0 0 0 0 0 0 0 0 0 0 0 0 0 0 0 0 0 0 0 0 0 0 0 0 0 0 0 0 0 0 0 0 0 0 0 0 0 0 0 0
0 0 0 0 0 0 0 0 0 0 0 0 0 0 0 0 0 0 0 0 0 0 0 0 0 0 0 0 0 0 0 0 0 0 0 0 0 0 0 0 0 0 0 0 0 0 0 0 0
0 0 0 0 0 0 0 0 0 0 0 0 0 0 0 0 0 0 0 0 0 0 0 0 0 0 0 0 0 0 0 0 0 0 1 0 0 1 1 1 0 0 0 0 0 0 0 0 0
0 0 0 0 0 0 0 0 0 0 0 0 0 0 0 0 0 0 0 0 0 0 0 0 0 0 0 0 0 0 0 0 1 1 1 1 1 1 1 1 1 0 0 0 0 0 0 0 0
0 0 0 0 0 0 0 0 0 0 0 0 0 0 0 0 0 0 0 0 0 0 0 0 0 0 0 0 0 0 0 0 1 1 1 1 1 1 1 1 1 1 1 0 0 0 0 0 0
0 0 0 0 0 0 0 0 0 0 0 0 0 0 0 0 0 0 0 0 0 0 0 0 0 0 0 0 0 0 0 0 1 1 1 1 1 1 1 1 1 1 1 1 0 0 0 0 0
0 0 0 0 0 0 0 0 0 0 0 0 0 0 0 0 0 0 0 0 0 0 0 0 0 0 0 0 0 0 0 0 1 1 1 1 1 1 1 1 1 1 1 1 1 0 0 0 0
0 0 0 0 0 0 0 0 0 0 0 0 0 0 0 0 0 0 0 0 0 0 0 0 0 0 0 0 0 0 0 0 0 1 1 1 1 1 1 1 1 1 1 1 1 0 0 0 0
0 0 0 0 0 0 0 0 0 0 0 0 0 0 0 0 0 0 0 0 0 0 0 0 0 0 0 0 0 0 0 0 0 0 1 1 1 1 1 1 1 1 1 1 1 1 0 0 0
0 0 0 0 0 0 0 0 0 0 0 0 0 0 0 0 0 0 0 0 0 0 0 0 0 0 0 0 0 0 0 0 0 0 0 0 1 1 1 1 1 1 1 1 1 1 0 0 0
0 0 0 0 0 0 0 0 0 0 0 0 0 0 0 0 0 0 0 0 0 0 0 0 0 0 0 0 0 0 0 0 0 0 0 0 1 1 1 1 1 1 1 1 1 1 0 0 0
0 0 0 0 0 0 0 0 0 0 0 0 0 0 0 0 0 0 0 0 0 0 0 0 0 0 0 0 0 0 0 0 0 0 0 0 0 0 1 1 1 1 1 1 1 1 0 0 0
0 0 0 0 0 0 0 0 0 0 0 0 0 0 0 0 0 0 0 0 0 0 0 0 0 0 0 0 0 0 0 0 0 0 0 0 0 0 0 0 1 1 1 1 1 1 0 0 0
0 0 0 0 0 0 0 0 0 0 0 0 0 0 0 0 0 0 0 0 0 0 0 0 0 0 0 0 0 0 0 0 0 0 0 0 0 0 0 0 0 0 0 0 0 0 0 0 0
0 0 0 0 0 0 0 0 0 0 0 0 0 0 0 0 0 0 0 0 0 0 0 0 0 0 0 0 0 0 0 0 0 0 0 0 0 0 0 0 0 0 0 0 0 0 0 0 0
0 0 0 0 0 0 0 0 0 0 0 0 0 0 0 0 0 0 0 0 0 0 0 0 0 0 0 0 0 0 0 0 0 0 0 0 0 0 0 0 0 0 0 0 0 0 0 0 0
Wind_Speed
8 7 4 3 4 5 11 8 7 6 5 5 4 2 3 5 5 6 5 11 13 14 14 14 12 12 11 11 11 10 10 9 9 8 8 7 7 7 6 5 5 4 4 3 3 3 4 3 3
6 6 4 4 2 9 11 8 9 9 7 4 5 4 5 7 7 6 7 10 13 13 12 12 13 11 11 11 10 10 10 9 8 8 7 7 6 6 6 5 5 4 4 4 3 4 4 4 3
7 5 4 0 8 10 11 9 9 9 7 4 5 5 6 7 5 5 8 12 12 12 11 12 12 11 10 10 10 10 9 9 8 7 7 6 6 6 5 5 5 4 4 4 3 3 4 4 3
5 4 3 4 11 9 7 7 6 7 8 7 5 7 7 7 4 6 10 12 12 10 10 12 11 10 10 10 9 9 9 8 8 7 7 6 6 5 5 5 5 4 4 3 3 3 3 3 3
4 3 3 7 9 8 8 8 7 9 8 8 7 8 8 8 7 9 10 10 10 10 9 11 10 9 9 9 9 9 9 8 8 7 7 6 6 5 5 4 4 4 4 3 3 3 3 3 3
3 2 4 7 8 7 9 8 8 11 11 9 7 8 8 7 7 8 8 7 8 8 7 9 10 8 8 8 8 9 8 8 8 7 7 6 6 5 4 4 4 3 3 3 3 3 3 3 3
2 2 5 7 7 7 8 8 11 10 13 12 8 6 8 8 6 5 6 5 5 6 6 6 8 9 9 8 8 8 9 9 8 8 7 7 6 6 5 4 4 3 3 3 2 2 2 3 2
2 2 5 5 5 7 6 8 9 12 12 10 10 7 6 6 5 4 4 3 3 4 4 4 4 5 7 9 10 9 9 9 9 9 8 8 7 7 6 7 6 4 4 3 3 2 3 2 2
3 2 4 4 4 6 6 7 8 9 12 14 13 11 8 7 5 4 4 2 1 2 3 4 5 5 5 5 6 9 10 10 10 10 10 9 8 9 9 7 5 5 5 4 3 3 3 3 4
2 3 6 5 7 9 12 11 6 8 13 13 14 13 10 9 8 7 6 5 4 4 4 5 6 6 7 5 5 6 7 7 9 8 9 8 7 5 5 8 6 6 6 5 4 3 5 8 6
6 7 8 8 9 9 11 15 14 8 12 11 10 11 10 11 10 9 9 8 7 6 6 7 7 7 7 5 5 4 4 5 7 9 8 7 6 5 6 5 8 9 9 8 8 8 7 6 4
9 11 8 7 7 8 9 9 13 17 10 9 10 10 11 12 12 11 10 10 9 9 8 8 8 7 7 7 5 5 5 5 5 7 9 7 5 6 5 5 5 5 5 5 5 5 6 6 7
11 11 14 16 18 17 17 16 14 14 11 10 11 12 13 12 11 10 10 9 10 10 10 9 9 8 7 7 6 6 6 6 7 6 7 8 6 7 7 6 5 6 5 6 6 6 7 7 7
12 15 13 12 12 12 17 14 10 11 10 11 12 12 12 12 12 11 11 11 11 11 11 9 9 8 7 6 6 6 6 6 7 7 9 10 8 7 7 7 6 6 6 6 6 8 6 6 6
16 15 12 8 6 4 6 13 11 9 9 11 11 11 11 12 11 12 12 11 11 11 10 10 9 8 8 7 7 5 6 7 6 7 9 10 10 9 8 7 7 7 7 8 7 8 6 6 6
8 7 6 8 5 3 2 8 10 8 9 10 10 10 10 10 11 11 11 11 11 11 11 10 9 9 9 8 7 6 6 7 6 6 7 10 11 11 8 7 7 7 6 6 6 6 7 7 7
6 3 5 6 7 3 6 8 7 8 9 10 10 10 10 11 12 12 12 12 11 11 11 11 10 10 9 9 7 7 7 7 6 6 7 9 10 10 8 7 7 8 6 7 7 7 7 7 6
1 2 4 6 7 9 10 9 7 8 9 10 10 10 11 12 12 12 12 12 11 11 11 10 10 10 9 7 6 5 6 6 6 6 7 9 8 9 8 7 9 8 6 7 7 8 7 6 6
2 2 6 7 5 6 10 9 8 8 10 10 10 11 12 13 13 13 13 12 12 12 12 11 11 10 8 6 6 5 5 5 5 5 8 9 9 9 9 7 8 7 7 8 9 7 8 7 6
2 3 6 7 4 4 8 8 7 8 10 10 11 12 13 13 14 14 13 13 13 13 13 12 11 10 9 6 6 5 6 5 5 5 6 7 8 8 8 9 8 8 7 9 9 8 6 6 6
4 2 3 6 6 5 4 5 5 6 7 9 10 11 12 13 15 14 14 13 13 13 13 11 12 10 9 8 6 5 4 4 4 4 4 5 6 7 8 9 8 8 8 7 8 9 9 6 6
3 3 2 8 8 4 4 2 5 5 7 10 12 12 13 13 14 14 14 14 14 13 13 12 12 11 10 8 6 7 5 5 5 4 4 5 5 6 6 8 8 8 6 7 8 9 7 7 6
4 1 3 6 4 4 0 4 5 5 9 12 13 13 13 13 14 14 14 14 14 13 12 12 12 11 10 9 8 7 6 6 5 4 4 4 3 4 4 5 6 6 6 6 7 8 9 7 7
3 6 6 5 6 3 3 4 4 7 10 12 13 13 13 13 13 13 13 13 13 13 12 12 12 11 11 10 9 8 8 7 6 5 4 3 2 2 3 4 4 5 5 7 7 7 8 7 8
3 5 4 6 4 2 2 2 4 6 7 9 11 12 12 12 12 12 13 13 13 14 13 12 12 11 11 10 9 9 9 7 6 6 4 3 2 1 2 3 4 4 5 6 6 7 7 8 9
2 5 5 5 2 3 2 1 4 4 5 6 8 9 10 11 11 11 12 12 12 13 13 13 12 12 12 11 10 9 9 6 5 6 5 4 3 2 2 2 2 3 4 5 5 5 6 7 8
1 2 4 3 0 2 3 2 3 2 5 7 8 9 10 11 10 11 11 12 12 12 12 12 12 11 12 11 10 9 9 8 7 7 6 4 4 3 2 0 1 2 3 4 4 4 5 5 6
5 2 3 4 3 1 2 1 2 5 7 8 9 9 10 10 10 11 11 11 11 10 10 11 11 11 11 11 10 8 9 9 8 7 7 6 5 4 3 1 1 1 1 2 3 3 3 5 5
1 1 1 0 3 4 0 3 4 4 5 6 7 8 8 9 9 9 9 10 10 10 10 10 11 11 11 11 11 10 10 10 9 8 8 7 6 6 4 4 2 2 2 1 2 2 3 3 3
3 3 3 3 1 2 1 3 3 2 3 4 6 6 7 8 8 8 8 9 10 10 10 10 10 11 10 10 10 10 10 10 10 10 10 9 8 7 7 5 5 4 3 2 1 1 2 2 3
Wind_Direction
191 188 194 225 217 87 67 60 53 59 65 63 75 64 46 36 9 52 106 149 142 146 144 149 150 147 144 141 139 138 136 137 139 141 143 145 147 148 147 151 149 145 139 137 137 137 126 119 115
174 173 215 241 91 82 69 55 57 52 74 81 77 64 69 61 45 81 134 141 147 146 148 149 147 150 148 147 145 142 140 142 143 145 147 150 152 151 151 152 151 148 144 136 131 130 122 114 108
175 216 258 95 65 64 65 49 58 70 63 59 77 54 44 42 62 108 132 146 150 146 148 138 151 153 154 152 149 147 147 148 150 152 152 152 154 154 155 152 146 144 139 131 122 122 123 118 108
191 218 232 93 80 63 50 57 57 74 63 48 68 78 69 43 49 105 133 150 148 148 150 142 158 159 160 157 156 157 158 158 159 158 157 159 161 162 162 154 148 141 135 128 122 124 124 124 115
234 246 134 98 84 72 60 50 54 59 60 51 60 81 72 46 70 111 136 148 153 153 152 149 161 166 166 165 167 169 169 169 170 169 169 169 168 165 164 160 154 147 140 132 121 122 126 124 119
232 233 122 95 90 80 62 53 59 62 65 52 51 78 71 68 88 117 134 154 154 154 160 154 159 176 178 179 181 181 181 181 181 180 181 179 177 174 172 171 165 159 146 129 122 122 127 127 125
280 103 101 107 106 80 44 47 46 57 55 38 20 74 92 73 80 114 130 144 150 158 173 182 173 181 188 194 196 194 194 193 193 193 191 192 192 188 184 181 180 175 160 144 131 128 131 126 128
315 138 124 111 107 70 38 66 50 43 54 37 22 44 73 78 89 102 112 126 151 176 193 213 205 216 205 196 198 207 208 206 206 205 202 200 201 199 193 203 184 191 184 173 154 141 138 133 130
272 155 109 82 87 70 46 78 64 62 68 56 46 40 52 71 77 76 78 88 117 251 248 245 245 239 250 244 205 210 215 216 216 213 208 209 215 205 196 198 162 201 200 189 179 169 158 176 163
9 90 72 61 83 92 66 57 53 71 54 41 39 42 48 54 53 48 35 19 3 335 306 284 274 262 252 249 241 232 226 217 223 223 211 217 224 221 229 134 185 213 211 201 193 186 201 225 192
56 78 98 89 92 99 90 63 39 63 46 26 26 34 40 41 37 30 24 13 1 349 342 323 302 281 271 257 254 245 241 234 237 237 227 225 229 220 220 196 188 203 207 209 179 203 215 216 201
87 65 75 74 75 73 78 82 62 50 44 34 41 43 43 39 34 25 18 10 1 356 349 336 321 301 284 268 256 254 250 246 242 238 239 228 228 235 222 219 214 210 207 213 216 222 207 223 208
102 99 87 86 85 84 85 82 75 50 41 47 49 47 41 37 30 25 17 10 4 359 351 341 330 320 304 285 268 257 250 252 251 243 245 236 231 233 227 223 213 223 219 207 216 223 210 217 219
108 110 102 92 91 85 82 72 61 35 32 44 44 41 36 31 23 17 12 5 359 353 347 343 336 329 316 297 276 267 266 255 255 248 242 242 235 236 234 233 221 222 221 220 218 217 211 218 218
126 118 100 66 89 113 94 61 42 27 34 42 40 38 33 28 21 15 7 359 353 345 339 339 334 332 322 307 292 275 264 263 256 253 251 246 240 238 235 237 228 220 216 216 219 214 219 219 215
166 163 118 58 39 41 110 70 35 25 38 40 33 29 25 23 19 12 4 357 351 345 340 337 332 330 325 315 299 284 269 259 254 253 252 251 244 238 237 235 234 227 218 218 211 220 217 216 221
197 196 124 90 37 70 88 86 50 33 36 38 29 22 17 15 11 8 1 356 350 345 341 338 336 331 325 315 301 286 277 264 259 255 249 249 247 240 232 231 231 226 215 217 214 213 219 221 222
204 159 111 95 66 91 96 94 66 45 38 33 25 18 15 11 6 3 358 355 350 346 343 340 336 330 324 314 304 296 283 273 263 258 251 248 245 239 234 230 230 227 216 217 218 215 218 228 223
32 128 111 102 111 91 98 92 66 45 37 28 21 14 10 5 1 1 357 354 351 349 347 342 338 335 330 322 315 308 300 290 275 265 262 252 244 238 230 231 231 224 219 219 219 216 216 221 223
123 136 117 116 121 123 117 94 72 48 34 24 15 10 5 358 357 358 355 354 349 348 347 342 339 337 331 323 312 297 296 290 288 278 265 255 247 241 233 228 227 223 221 220 220 219 219 217 215
70 24 138 142 138 144 170 148 78 57 37 28 19 10 4 359 353 353 352 351 348 348 345 339 336 333 332 327 316 309 296 283 279 277 272 263 249 239 231 226 225 223 217 216 215 215 215 213 215
94 41 166 166 185 152 249 224 81 31 26 21 14 8 3 360 355 354 351 351 350 348 345 341 340 337 336 332 329 320 310 303 301 296 281 274 258 241 232 229 225 224 217 214 214 214 212 211 212
54 82 174 187 207 182 273 279 86 27 12 8 7 5 3 1 358 357 356 353 353 351 349 346 346 345 346 344 339 328 322 314 309 301 287 282 272 244 226 226 220 216 212 215 218 216 212 212 215
132 149 144 184 221 217 23 308 52 23 2 355 359 1 1 0 360 359 358 356 357 357 355 353 350 351 350 347 347 345 338 331 329 325 311 295 284 252 222 219 213 210 209 213 216 218 215 216 222
223 233 217 204 209 92 49 315 46 21 4 353 350 355 358 0 1 360 359 359 359 359 358 357 354 354 353 352 355 353 350 341 338 335 322 309 303 288 251 227 213 203 204 209 209 212 214 215 220
19 299 309 312 348 109 161 355 59 28 1 353 357 359 358 2 2 1 1 0 357 357 358 359 359 357 358 359 358 358 359 352 351 347 339 332 332 326 308 238 211 201 199 204 204 209 214 213 217
256 40 346 315 345 214 133 123 130 35 5 3 3 2 3 4 5 4 2 2 360 359 358 359 0 360 1 3 3 7 4 2 1 357 354 357 360 357 354 324 201 193 193 198 198 206 207 209 212
21 20 246 270 278 255 145 124 22 11 4 0 2 1 360 1 4 5 4 3 1 0 358 2 3 3 6 5 6 8 8 9 9 8 11 12 12 12 13 42 65 123 161 179 182 191 197 201 203
141 154 40 22 327 307 322 86 50 359 353 348 354 356 356 358 360 2 4 2 2 6 6 7 7 8 9 8 9 12 14 14 16 18 17 17 20 19 25 35 51 71 86 126 163 181 183 197 195
13 13 295 298 108 322 326 97 98 341 339 338 342 349 353 355 358 1 5 5 6 9 9 12 10 11 9 8 11 15 16 20 20 21 21 23 27 29 32 37 48 56 59 63 91 125 161 176 177